EN

Hourly Weather Dzikowiec

Today, 24 October, Saturday

Time Temperature Precipitation Wind Pressure Humidity
00:00 +11°C° 0.6 mm 3 mps 717 mmHg 91%
01:00 +11°C° 0.6 mm 3 mps 717 mmHg 93%
02:00 +11°C° 0.4 mm 3 mps 717 mmHg 94%
03:00 +12°C° 0.4 mm 2 mps 717 mmHg 95%
04:00 +12°C° 0.4 mm 2 mps 717 mmHg 95%
05:00 +12°C° 0 mm 2 mps 717 mmHg 95%
06:00 +12°C° 0 mm 1 mps 718 mmHg 95%
07:00 +12°C° 0 mm 1 mps 718 mmHg 95%
08:00 +12°C° 0 mm 2 mps 718 mmHg 91%
09:00 +13°C° 0 mm 2 mps 719 mmHg 87%
10:00 +14°C° 0 mm 2 mps 719 mmHg 83%
11:00 +14°C° 0 mm 3 mps 719 mmHg 79%
12:00 +14°C° 0 mm 3 mps 719 mmHg 76%
13:00 +16°C° 0 mm 3 mps 719 mmHg 72%
14:00 +15°C° 0 mm 2 mps 719 mmHg 75%
15:00 +15°C° 0 mm 2 mps 719 mmHg 77%
16:00 +14°C° 0 mm 2 mps 719 mmHg 80%
17:00 +13°C° 0 mm 2 mps 719 mmHg 83%
18:00 +12°C° 0 mm 1 mps 719 mmHg 86%
19:00 +11°C° 0 mm 1 mps 719 mmHg 89%
20:00 +10°C° 0 mm 1 mps 719 mmHg 90%
21:00 +10°C° 0 mm 1 mps 720 mmHg 90%
22:00 +10°C° 0 mm 1 mps 720 mmHg 91%
23:00 +9°C° 0 mm 1 mps 720 mmHg 91%

Tomorrow, 25 October, Sunday

Time Temperature Precipitation Wind Pressure Humidity
00:00 +9°C° 0 mm 1 mps 719 mmHg 91%
01:00 +9°C° 0 mm 1 mps 719 mmHg 92%
02:00 +9°C° 0 mm 1 mps 719 mmHg 92%
03:00 +8°C° 0 mm 1 mps 719 mmHg 92%
04:00 +8°C° 0 mm 1 mps 718 mmHg 91%
05:00 +8°C° 0 mm 1 mps 718 mmHg 91%
06:00 +8°C° 0 mm 1 mps 718 mmHg 90%
07:00 +8°C° 0 mm 1 mps 718 mmHg 90%
08:00 +10°C° 0 mm 1 mps 718 mmHg 83%
09:00 +12°C° 0 mm 1 mps 718 mmHg 76%
10:00 +14°C° 0 mm 1 mps 718 mmHg 70%
11:00 +15°C° 0 mm 1 mps 718 mmHg 66%
12:00 +15°C° 0 mm 2 mps 718 mmHg 62%
13:00 +16°C° 0 mm 2 mps 717 mmHg 58%
14:00 +15°C° 0 mm 2 mps 717 mmHg 63%
15:00 +15°C° 0 mm 2 mps 716 mmHg 69%
16:00 +14°C° 0 mm 2 mps 716 mmHg 74%
17:00 +13°C° 0 mm 2 mps 716 mmHg 78%
18:00 +10°C° 0 mm 2 mps 716 mmHg 81%
19:00 +9°C° 0 mm 2 mps 716 mmHg 85%
20:00 +9°C° 0 mm 2 mps 715 mmHg 87%
21:00 +9°C° 0 mm 2 mps 715 mmHg 89%
22:00 +9°C° 0 mm 2 mps 715 mmHg 91%
23:00 +9°C° 0 mm 2 mps 714 mmHg 91%

Day after tomorrow, 26 October, Monday

Time Temperature Precipitation Wind Pressure Humidity
00:00 +9°C° 0 mm 2 mps 714 mmHg 92%
01:00 +9°C° 0 mm 2 mps 714 mmHg 93%
02:00 +9°C° 0 mm 2 mps 714 mmHg 93%
03:00 +9°C° 0 mm 2 mps 713 mmHg 92%
04:00 +9°C° 0 mm 2 mps 713 mmHg 92%
05:00 +9°C° 0 mm 2 mps 713 mmHg 91%
06:00 +9°C° 0 mm 2 mps 713 mmHg 90%
07:00 +10°C° 0 mm 2 mps 713 mmHg 89%
08:00 +10°C° 0 mm 2 mps 713 mmHg 88%
09:00 +10°C° 0 mm 2 mps 713 mmHg 87%
10:00 +12°C° 0 mm 2 mps 713 mmHg 86%
11:00 +12°C° 0 mm 2 mps 712 mmHg 86%
12:00 +12°C° 0 mm 2 mps 712 mmHg 86%
13:00 +12°C° 0 mm 2 mps 712 mmHg 85%
14:00 +12°C° 0 mm 2 mps 712 mmHg 85%
15:00 +12°C° 0 mm 2 mps 712 mmHg 85%
16:00 +12°C° 0 mm 2 mps 712 mmHg 85%
17:00 +12°C° 0 mm 2 mps 712 mmHg 87%
18:00 +10°C° 0 mm 2 mps 713 mmHg 89%
19:00 +11°C° 0 mm 1 mps 713 mmHg 91%
20:00 +10°C° 0 mm 1 mps 713 mmHg 92%
21:00 +10°C° 0 mm 1 mps 713 mmHg 94%
22:00 +8°C° 0 mm 0 mps 713 mmHg 95%
23:00 +8°C° 0 mm 0 mps 713 mmHg 95%

, 27 October, Tuesday

Time Temperature Precipitation Wind Pressure Humidity
00:00 +8°C° 0 mm 0 mps 713 mmHg 95%
01:00 +9°C° 0 mm 1 mps 713 mmHg 96%
02:00 +9°C° 0.1 mm 1 mps 713 mmHg 96%
03:00 +9°C° 0.1 mm 1 mps 713 mmHg 96%
04:00 +9°C° 0.1 mm 1 mps 713 mmHg 97%
05:00 +9°C° 0.6 mm 1 mps 713 mmHg 97%
06:00 +9°C° 0.6 mm 1 mps 713 mmHg 97%
07:00 +9°C° 0.6 mm 1 mps 713 mmHg 98%
08:00 +9°C° 0.6 mm 1 mps 714 mmHg 97%
09:00 +9°C° 0.6 mm 1 mps 714 mmHg 97%
10:00 +9°C° 0.6 mm 1 mps 714 mmHg 97%
11:00 +9°C° 0.6 mm 1 mps 714 mmHg 97%
12:00 +9°C° 0.6 mm 1 mps 714 mmHg 97%
13:00 +9°C° 0.6 mm 1 mps 714 mmHg 97%
14:00 +9°C° 0.5 mm 1 mps 714 mmHg 97%
15:00 +9°C° 0.5 mm 1 mps 715 mmHg 97%
16:00 +9°C° 0.5 mm 1 mps 715 mmHg 97%
17:00 +9°C° 0.2 mm 1 mps 715 mmHg 97%
18:00 +9°C° 0.2 mm 1 mps 716 mmHg 96%
19:00 +9°C° 0.2 mm 1 mps 716 mmHg 95%
20:00 +8°C° 0 mm 1 mps 716 mmHg 95%
21:00 +8°C° 0 mm 1 mps 717 mmHg 94%
22:00 +6°C° 0 mm 2 mps 717 mmHg 94%
23:00 +6°C° 0 mm 2 mps 717 mmHg 94%

27 October, Tuesday

Time Temperature Precipitation Wind Pressure Humidity
00:00 +8°C° 0 mm 0 mps 713 mmHg 95%
01:00 +9°C° 0 mm 1 mps 713 mmHg 96%
02:00 +9°C° 0.1 mm 1 mps 713 mmHg 96%
03:00 +9°C° 0.1 mm 1 mps 713 mmHg 96%
04:00 +9°C° 0.1 mm 1 mps 713 mmHg 97%
05:00 +9°C° 0.6 mm 1 mps 713 mmHg 97%
06:00 +9°C° 0.6 mm 1 mps 713 mmHg 97%
07:00 +9°C° 0.6 mm 1 mps 713 mmHg 98%
08:00 +9°C° 0.6 mm 1 mps 714 mmHg 97%
09:00 +9°C° 0.6 mm 1 mps 714 mmHg 97%
10:00 +9°C° 0.6 mm 1 mps 714 mmHg 97%
11:00 +9°C° 0.6 mm 1 mps 714 mmHg 97%
12:00 +9°C° 0.6 mm 1 mps 714 mmHg 97%
13:00 +9°C° 0.6 mm 1 mps 714 mmHg 97%
14:00 +9°C° 0.5 mm 1 mps 714 mmHg 97%
15:00 +9°C° 0.5 mm 1 mps 715 mmHg 97%
16:00 +9°C° 0.5 mm 1 mps 715 mmHg 97%
17:00 +9°C° 0.2 mm 1 mps 715 mmHg 97%
18:00 +9°C° 0.2 mm 1 mps 716 mmHg 96%
19:00 +9°C° 0.2 mm 1 mps 716 mmHg 95%
20:00 +8°C° 0 mm 1 mps 716 mmHg 95%
21:00 +8°C° 0 mm 1 mps 717 mmHg 94%
22:00 +6°C° 0 mm 2 mps 717 mmHg 94%
23:00 +6°C° 0 mm 2 mps 717 mmHg 94%

28 October, Wednesday

Time Temperature Precipitation Wind Pressure Humidity
00:00 +5°C° 0 mm 2 mps 717 mmHg 93%
01:00 +5°C° 0 mm 2 mps 717 mmHg 93%
02:00 +5°C° 0 mm 2 mps 717 mmHg 93%
03:00 +5°C° 0 mm 2 mps 717 mmHg 92%
04:00 +4°C° 0 mm 2 mps 717 mmHg 92%
05:00 +4°C° 0 mm 2 mps 717 mmHg 92%
06:00 +4°C° 0 mm 2 mps 717 mmHg 91%
07:00 +4°C° 0 mm 2 mps 717 mmHg 90%
08:00 +6°C° 0 mm 2 mps 718 mmHg 84%
09:00 +7°C° 0 mm 3 mps 718 mmHg 78%
10:00 +9°C° 0 mm 3 mps 718 mmHg 72%
11:00 +10°C° 0 mm 3 mps 718 mmHg 68%
12:00 +11°C° 0 mm 3 mps 718 mmHg 65%
13:00 +12°C° 0 mm 4 mps 718 mmHg 61%
14:00 +11°C° 0 mm 3 mps 718 mmHg 65%
15:00 +10°C° 0 mm 3 mps 718 mmHg 69%
16:00 +10°C° 0 mm 3 mps 718 mmHg 73%
17:00 +9°C° 0 mm 3 mps 718 mmHg 76%
18:00 +8°C° 0 mm 3 mps 718 mmHg 79%
19:00 +8°C° 0 mm 3 mps 718 mmHg 82%
20:00 +7°C° 0 mm 3 mps 718 mmHg 83%
21:00 +7°C° 0 mm 3 mps 718 mmHg 85%
22:00 +7°C° 0 mm 3 mps 718 mmHg 86%
23:00 +7°C° 0 mm 3 mps 718 mmHg 86%

29 October, Thursday

Time Temperature Precipitation Wind Pressure Humidity
00:00 +7°C° 0 mm 3 mps 718 mmHg 85%
01:00 +7°C° 0 mm 2 mps 718 mmHg 85%
02:00 +7°C° 0 mm 3 mps 718 mmHg 83%
03:00 +7°C° 0 mm 3 mps 718 mmHg 82%
04:00 +7°C° 0 mm 4 mps 718 mmHg 80%
05:00 +7°C° 0 mm 4 mps 718 mmHg 80%
06:00 +7°C° 0 mm 4 mps 718 mmHg 80%
07:00 +7°C° 0 mm 4 mps 719 mmHg 80%
08:00 +8°C° 0 mm 5 mps 719 mmHg 79%
09:00 +9°C° 0 mm 6 mps 719 mmHg 78%
10:00 +9°C° 0 mm 6 mps 720 mmHg 77%
11:00 +10°C° 0.1 mm 6 mps 720 mmHg 74%
12:00 +10°C° 0.1 mm 6 mps 720 mmHg 72%
13:00 +10°C° 0.1 mm 6 mps 720 mmHg 69%
14:00 +10°C° 0.1 mm 5 mps 720 mmHg 72%
15:00 +9°C° 0.1 mm 5 mps 720 mmHg 74%
16:00 +10°C° 0.1 mm 4 mps 721 mmHg 77%
17:00 +8°C° 0 mm 4 mps 721 mmHg 78%
18:00 +7°C° 0 mm 4 mps 721 mmHg 80%
19:00 +8°C° 0 mm 3 mps 722 mmHg 82%
20:00 +8°C° 0 mm 3 mps 722 mmHg 84%
21:00 +6°C° 0 mm 4 mps 722 mmHg 86%
22:00 +6°C° 0 mm 4 mps 722 mmHg 89%
23:00 +6°C° 0 mm 4 mps 722 mmHg 88%
Show more